Flag for Portugal Weather past 2 weeks in Faro, Portugal

Now
61 °F

Passing clouds.


Feels Like: 61 °F
Forecast: 60 / 67 °F
Wind: 17 mph from West

Location: Faro / Aeroporto

Current Time: Apr 26, 2015 at 10:29:11 PM

Latest Report: Apr 26, 2015 at 10:00 PM


Visibility: N/A

Pressure: 29.98 "Hg

Humidity: 83%

Dew point: 55 °F

Location of FaroLocation

Historic Weather in Faro — Graph

°F

Faro temperature yesterday

Maximum temperature yesterday: 68 °F (at 2:00 PM)
Minimum temperature yesterday: 61 °F (at 5:30 AM)
Average temperature yesterday: 64 °F

Past Weeks' High & Low Weather Summary

 TemperatureHumidityPressure
High72 °F (Apr 18, 4:00 PM)100% (Apr 12, 6:00 AM)30.21 "Hg (Apr 12, 6:00 AM)
Low52 °F (Apr 19, 5:30 AM)29% (Apr 18, 5:00 PM)29.86 "Hg (Apr 26, 5:30 AM)
Average62 °F74%30.04 "Hg
* Reported Apr 11 9:00 PM — Apr 26 9:00 PM, Faro, Weather by CustomWeather, © 2015

Note: Actual official high and low records may vary slightly from our data, if they occured in-between our weather recording intervals... More about our weather records

Advertising

Faro weather history for previous 24 hours

 ConditionsComfort  
Time TempWeatherWind HumidityBarometerVisibility
9:00 PM
Sun, Apr 26
63 °FPartly sunny.17 mph83%29.95 "HgN/A
8:30 PM63 °FScattered clouds.20 mph77%29.92 "HgN/A
8:00 PM63 °FScattered clouds.20 mph77%29.92 "HgN/A
7:30 PM63 °FScattered clouds.21 mph83%29.92 "HgN/A
7:00 PM64 °FPassing clouds.22 mph78%29.92 "HgN/A
6:30 PM63 °FScattered clouds.22 mph77%29.89 "HgN/A
6:00 PM64 °FPassing clouds.25 mph73%29.89 "HgN/A
5:30 PM64 °FPassing clouds.26 mph73%29.89 "HgN/A
5:00 PM66 °FPassing clouds.28 mph68%29.89 "HgN/A
4:30 PM66 °FPassing clouds.28 mph68%29.89 "HgN/A
4:00 PM66 °FPassing clouds.25 mph68%29.89 "HgN/A
3:30 PM66 °FPassing clouds.25 mph68%29.89 "HgN/A
3:00 PM66 °FPassing clouds.25 mph73%29.89 "HgN/A
2:30 PM66 °FPassing clouds.25 mph73%29.89 "HgN/A
2:00 PM66 °FPassing clouds.25 mph73%29.89 "HgN/A
1:30 PM66 °FPassing clouds.23 mph73%29.89 "HgN/A
1:00 PM66 °FPassing clouds.24 mph68%29.89 "HgN/A
12:30 PM66 °FPassing clouds.20 mph78%29.89 "HgN/A
12:00 PM64 °FPassing clouds.20 mph83%29.86 "HgN/A
11:30 AM64 °FPassing clouds.16 mph88%29.89 "HgN/A
11:00 AM64 °FPassing clouds.17 mph83%29.86 "HgN/A
10:30 AM64 °FScattered clouds.16 mph88%29.86 "HgN/A
10:00 AM63 °FBroken clouds.14 mph94%29.86 "HgN/A
9:30 AM61 °FLight rain. Broken clouds.13 mph100%29.86 "HgN/A
9:00 AM61 °FLight rain. Broken clouds.16 mph100%29.86 "Hg4 mi
8:30 AM61 °FLight rain. Fog.16 mph100%29.86 "Hg2 mi
8:00 AM63 °FSprinkles. Partly sunny.16 mph94%29.86 "HgN/A
7:30 AM63 °FPassing clouds.15 mph94%29.86 "HgN/A
7:00 AM63 °FPassing clouds.15 mph94%29.86 "HgN/A
6:30 AM63 °FPassing clouds.15 mph88%29.86 "HgN/A
6:00 AM63 °FPartly cloudy.15 mph88%29.86 "HgN/A
5:30 AM63 °FPassing clouds.15 mph88%29.86 "HgN/A
5:00 AM63 °FSprinkles. Passing clouds.15 mph88%29.89 "HgN/A
4:30 AM63 °FPassing clouds.12 mph94%29.89 "HgN/A
4:00 AM63 °FPassing clouds.12 mph88%29.89 "HgN/A
3:30 AM63 °FPassing clouds.12 mph88%29.89 "HgN/A
3:00 AM63 °FSprinkles. Passing clouds.10 mph94%29.92 "HgN/A
2:30 AM63 °FSprinkles. Passing clouds.8 mph94%29.92 "HgN/A
2:00 AM63 °FSprinkles. Passing clouds.9 mph94%29.95 "HgN/A
1:30 AM63 °FPassing clouds.8 mph94%29.95 "HgN/A
1:00 AM63 °FSprinkles. Passing clouds.10 mph94%29.95 "HgN/A
12:30 AM63 °FPassing clouds.8 mph94%29.95 "HgN/A
12:00 AM63 °FPassing clouds.8 mph94%29.98 "HgN/A
11:30 PM
Sat, Apr 25
63 °FSprinkles. Partly cloudy.9 mph88%29.98 "HgN/A
11:00 PM63 °FPartly cloudy.10 mph88%29.98 "HgN/A
10:00 PM63 °FPartly cloudy.10 mph94%29.98 "HgN/A
Weather by CustomWeather, © 2015

See weather overviewHow to use our weather pages